{"data":{"norad_id":64071,"intl_designator":"2025-107H","name":"STARLINK-11719 [DTC]","alt_names":[],"object_type":"PAYLOAD","status":"ACTIVE","operator":null,"country":"US","launch_date":"2025-05-21","launch_site_code":"AFETR","launch_vehicle":null,"mission":null,"orbit_class":"UNKNOWN","rcs_meters":null,"size_class":null,"mass_kg":null,"dimensions":null,"purposes":["comms"],"wikipedia_slug":null,"has_3d_model":false,"image_url":null,"decayed_at":null,"tle_current":{"epoch":"2026-09-20T13:43:19.573248Z","epoch_age_seconds":137321,"freshness":"FRESH","line1":"1 64071U 25107H   26263.57175432  .00174462  00000+0  13336-2 0  9997","line2":"2 64071  42.9999   3.9291 0000951 235.7352 124.3426 15.70860988 77949","mean_motion":15.70860988,"eccentricity":9.51e-5,"inclination_deg":42.9999,"raan_deg":3.9291,"arg_perigee_deg":235.7352,"mean_anomaly_deg":124.3426,"bstar":0.0013336,"rev_number":7794,"period_min":91.669473683562,"perigee_km":355.7946168002,"apogee_km":357.07553240879,"semimajor_km":6734.5720746045,"source":"CELESTRAK","updated_at":"2026-09-21T09:00:35.192990Z"}}}